Terminal Aerodrome Forecast
Issued by NWS

Home | Current Version | Previous Version | Graphics & Text | Print | Product List | Glossary On
Versions: 1 2 3 4 5 6 7 8 9 10 11 12 13 14 15 16 17 18 19 20 21 22
000
FTUS43 KIWX 191100 RRA
TAFSBN
TAF
KSBN 191149Z 1912/2012 21005KT 4SM BR SCT035
     FM191400 20012KT P6SM SCT040
      TEMPO 1919/1921 29020G40KT 3SM +TSRA BKN050CB
     FM200000 22005KT P6SM SCT060=

USA.gov is the U.S. government's official web portal to all federal, state and local government web resources and services.